www.pogodaiklimat.ru

Погода и климат >> Архив погоды >> Индонезия >> Сабу


ПОГОДА в Сабу

  • Прогноз погоды в Сабу
  • Монитор погоды в Сабу

АРХИВ ПОГОДЫ в Сабу

Время (UTC), дата Ветер
(напр.,м/с)
 
Видим.   Явления Облачность Т
(С)
Тd
(С)
f
(%)
Тe
(С)
Тes
(С)
Комфортность P
(гПа)
Po
(гПа)
Тmin
(С)
Tmax
(С)
R
(мм)
R24
(мм)
S
(см)
03 17.04 В 6 14 км 1/1 450 м
[Cu hum Ci fib]
+31.5 +23.7 63 +43 +49 опасность
перегрева
1013.2 1011.0
06 17.04 Ю 3 14 км 1/1 450 м
[Cu hum Ci fib]
+32.1 +24.4 64 +45 +55 опасность
перегрева
1011.3 1009.1
09 17.04 Ю 3 14 км 1/1 450 м
[Cu hum Ci fib]
+30.2 +25.1 74 +44 +44 опасность
перегрева
1011.0 1008.8
12 17.04 ЮВ 2 7000 м 1/1 450 м
[Cu hum Ci fib]
+27.6 +24.6 84 +39 +39 очень
душно
1013.3 1011.0
15 17.04 В 1 6000 м 1/1 450 м
[Cu hum Ci fib]
+26.7 +24.4 87 +37 +37 очень
душно
1013.9 1011.7
18 17.04 В 2 6000 м 1/1 450 м
[Cu hum Ci fib]
+25.5 +24.2 93 +35 +35 очень
душно
1011.7 1009.5
00 18.04 В 3 14 км 1/1 450 м
[Cu hum Ci fib]
+29.6 +25.0 76 +42 +46 опасность
перегрева
1013.6 1011.4 +25.7
03 18.04 В 3 14 км 1/1 450 м
[Cu hum Ci fib]
+32.0 +24.7 65 +45 +58 опасность
перегрева
1013.0 1011.8
06 18.04 ЮВ 4 14 км 3/1 450 м
[Cu hum Ci fib]
+31.7 +24.7 67 +45 +53 опасность
перегрева
1010.7 1008.5
09 18.04 ЮВ 3 14 км 3/3 450 м
[Cu hum Ci fib]
+30.0 +25.2 76 +44 +44 опасность
перегрева
1010.5 1008.3
12 18.04 Ю 3 6000 м 3/3 450 м
[Cu hum Ci fib]
+28.0 +24.8 83 +40 +40 очень
душно
1012.4 1010.2 +32.4
15 18.04 ЮВ 3 6000 м 3/3 450 м
[Cu hum Ci fib]
+27.4 +24.4 84 +39 +39 очень
душно
1013.0 1010.9
18 18.04 ЮВ 3 6000 м 3/3 450 м
[Cu hum Ci fib]
+27.4 +24.4 84 +39 +39 очень
душно
1013.0 1010.9
00 19.04 В 4 14 км 3/3 450 м
[Cu hum Ci fib]
+29.7 +24.8 75 +42 +45 опасность
перегрева
1012.4 1010.2 +26.6
03 19.04 В 4 14 км 3/1 450 м
[Cu hum Ci fib]
+31.7 +24.3 65 +44 +54 опасность
перегрева
1011.6 1009.4
06 19.04 ЮВ 5 14 км 3/3 450 м
[Cu hum Ci fib]
+31.8 +25.1 68 +46 +51 опасность
перегрева
1008.7 1006.5
09 19.04 В 6 14 км 1/1 450 м
[Cu hum Ci fib]
+30.0 +24.9 74 +43 +43 опасность
перегрева
1008.6 1006.4
12 19.04 ЮВ 3 6000 м 1/1 450 м
[Cu hum Ci fib]
+28.2 +24.1 78 +39 +39 очень
душно
1010.3 1008.1 +32.4
15 19.04 В 3 6000 м 1/1 450 м
[Cu hum Ci fib]
+27.8 +23.4 77 +38 +38 очень
душно
1011.4 1009.2
18 19.04 В 2 6000 м 1/1 450 м
[Cu hum Ci fib]
+26.9 +23.7 83 +37 +37 очень
душно
1010.5 1008.2
00 20.04 ЮВ 3 14 км 1/1 450 м
[Cu hum Ci fib]
+29.5 +24.5 75 +42 +45 опасность
перегрева
1012.2 1010.0 +24.4
03 20.04 В 5 14 км 3/3 450 м
[Cu hum Ci fib]
+31.6 +23.7 63 +43 +49 опасность
перегрева
1011.6 1009.4
06 20.04 ЮВ 2 14 км 3/3 450 м
[Cu hum Ci fib]
+31.6 +24.9 68 +45 +54 опасность
перегрева
1008.8 1006.6
09 20.04 ЮВ 3 14 км 3/3 450 м
[Cu hum Ci fib]
+29.4 +25.1 78 +43 +43 опасность
перегрева
1008.7 1006.5
12 20.04 Ю 3 6000 м 1/1 450 м
[Cu hum Ci fib]
+27.8 +24.4 82 +39 +39 очень
душно
1010.7 1008.4 +32.2
15 20.04 ЮВ 3 6000 м 1/1 450 м
[Cu hum Ci fib]
+27.3 +24.6 85 +39 +39 очень
душно
1011.5 1009.3
18 20.04 ЮВ 2 6000 м 1/1 450 м
[Cu hum Ci fib]
+26.8 +24.1 85 +37 +37 очень
душно
1009.7 1007.5
00 21.04 ЮВ 3 14 км 4/3 450 м
[Cu hum Ci fib]
+28.0 +25.2 85 +41 +43 опасность
перегрева
1011.8 1009.6 +26.0
03 21.04 ЮВ 3 14 км 4/3 450 м
[Cu hum Ci fib]
+31.5 +24.9 68 +45 +55 опасность
перегрева
1011.3 1009.1
06 21.04 Ю 4 14 км 4/3 450 м
[Cu hum Ci fib]
+31.5 +24.9 68 +45 +51 опасность
перегрева
1009.1 1006.9
09 21.04 Ю 3 14 км 4/3 450 м
[Cu hum Ci fib]
+29.9 +24.8 74 +43 +43 опасность
перегрева
1008.8 1006.6
12 21.04 В 3 6000 м 1/1 480 м
[Cu hum Ci fib]
+26.8 +24.6 88 +38 +38 очень
душно
1010.6 1008.4 +32.3
15 21.04 В 2 6000 м 1/1 480 м
[Cu hum Ci fib]
+27.5 +24.2 82 +38 +38 очень
душно
1011.0 1008.8
18 21.04 В 2 6000 м 1/1 480 м
[Cu hum Ci fib]
+26.7 +24.4 87 +37 +37 очень
душно
1009.5 1007.3
00 22.04 ЮВ 4 14 км 1/1 480 м
[Cu hum Ci fib]
+29.2 +24.6 76 +41 +44 опасность
перегрева
1010.8 1008.6 +26.0
03 22.04 В 5 14 км 3/3 450 м
[Cu hum Ci fib]
+31.4 +24.1 65 +43 +49 опасность
перегрева
1010.1 1007.9
06 22.04 Ю 5 14 км 3/3 450 м
[Cu hum Ci fib]
+30.4 +24.7 72 +43 +49 опасность
перегрева
1008.0 1005.8
09 22.04 ЮВ 4 14 км 3/3 450 м
[Cu hum Ci fib]
+29.5 +24.5 75 +42 +42 опасность
перегрева
1009.0 1006.8
12 22.04 ЮВ 3 6000 м 1/1 450 м
[Cu hum Ci fib]
+28.0 +24.6 82 +40 +40 очень
душно
1010.9 1008.6 +32.2
15 22.04 ЮВ 2 6000 м 1/1 450 м
[Cu hum Ci fib]
+27.9 +24.2 80 +39 +39 очень
душно
1011.6 1009.4
18 22.04 ЮВ 2 6000 м 1/1 450 м
[Cu hum Ci fib]
+27.4 +24.1 82 +38 +38 очень
душно
1010.4 1008.2
00 23.04 В 7 14 км 1/1 450 м
[Cu hum Ci fib]
+29.5 +24.3 74 +41 +43 опасность
перегрева
1011.3 1009.0 +27.1
03 23.04 В 4 14 км 1/1 450 м
[Cu hum Ci fib]
+31.9 +23.0 59 +42 +52 опасность
перегрева
1010.3 1008.1
06 23.04 ЮВ 5 14 км 1/1 450 м
[Cu hum Ci fib]
+32.4 +24.6 64 +45 +51 опасность
перегрева
1008.3 1006.1
09 23.04 ЮВ 4 14 км 1/1 450 м
[Cu hum Ci fib]
+29.9 +24.6 73 +42 +43 опасность
перегрева
1009.0 1006.8
12 23.04 ЮВ 4 6000 м 1/1 450 м
[Cu hum Ci fib]
+28.2 +24.0 78 +39 +39 очень
душно
1011.1 1008.9 +33.0
15 23.04 ЮВ 3 6000 м 1/1 450 м
[Cu hum Ci fib]
+27.8 +24.8 84 +40 +40 очень
душно
1011.5 1009.3
18 23.04 В 3 6000 м 1/1 450 м
[Cu hum Ci fib]
+27.4 +24.0 82 +38 +38 очень
душно
1010.6 1008.4

 

Местоположение метеостанции Сабу (Индонезия): широта -10.50 долгота 121.83 высота над уровнем моря 26 м.

В архиве по умолчанию представлена погода в Сабу за последнюю неделю. Архивные данные за месяц целиком и за предыдущие месяцы, начиная с января 2011 года, Вы можете получить, выбрав интересующий диапазон дат из раскрывающегося списка и нажав кнопку "Ввод!".


*Определитесь, кто Вы:
робот инопланетянин человек

Внимание! Время в таблицах - всемирное. Для получения местного времени необходимо прибавить поправку, которая равна 8 ч.

Смотрите также архив погоды в соседних городах и на ближайших метеорологических станциях:

Погода на Роти (Индонезия) (138 км)
Погода в Аэропорту Умбу Механг Кунда (Индонезия) (188 км)
Погода в Купанге (Индонезия) (204 км)
Погода в Маумере (Индонезия) (213 км)
Погода в Рутенге (Индонезия) (257 км)
Погода в Ларантуке (Индонезия) (278 км)
Погода на Алоре (Индонезия) (393 км)
Погода в Биме (Индонезия) (406 км)
Погода на Острове Брауз (Западная Австралия, Австралия) (443 км)
Погода в Сумбава-Бесаре (Индонезия) (534 км)

Пояснения к столбцам:

Ветер - указаны скорость ветра в м/с - средняя за 10 мин, порывы в срок и между сроками (в фигурных скобках) и направление, откуда дует ветер: С - северный, СВ - северо-восточный, В - восточный, ЮВ - юго-восточный, Ю - южный, ЮЗ - юго-западный, З - западный, СЗ - северо-западный.
Видимость - горизонтальная дальность видимости в метрах или километрах. При видимости от 1 до 10 км при отсутствии осадков обычно наблюдается дымка, при ухудшении видимости до 1 км и менее - туман. В сухую погоду видимость может ухудшаться дымом, пылью или мглою.
Явления - указаны атмосферные явления, наблюдавшиеся в срок или в последний час перед сроком; фигурными скобками обозначены явления, наблюдавшиеся между сроками (за 1-3 часа до срока); квадратными скобками обозначены град или гололедные отложения с указанием их диаметра в мм.
Облачность - указаны через наклонную черту общая и нижняя облачность в баллах и высота нижней границы облаков в метрах; квадратными скобками обозначены формы облаков: Ci - перистые, Cs - перисто-слоистые, Cc - перисто-кучевые, Ac - высококучевые, As - высокослоистые, Sc - слоисто-кучевые, Ns - слоисто-дождевые, Cu - кучевые, Cb - кучево-дождевые. Подробнее классификацию облаков см. в Атласе облаков (PDF).
T - Температура воздуха - температура, измеренная на высоте 2 м над землей.
Td - Температура точки росы - температура, при понижении до которой содержащийся в воздухе водяной пар достигнет насыщения.
f - Относительная влажность воздуха - влажноcть воздуха, измеренная на высоте 2 м над землей.
Te - Эффективная температура - температура, которую ощущает одетый по сезону человек в тени. Характеристика душности погоды. При расчете учитывается влияние влажности воздуха и скорости ветра на теплоощущения человека.
Tes - Эффективная температура на солнце - температура, которую ощущает человек, с поправкой на солнечный нагрев. Характеристика знойности погоды. Зависит от высоты солнца над горизонтом, облачности и скорости ветра. Ночью, в пасмурную погоду, а также при ветре 12 м/с и более поправка равна нулю.
P - Атмосферное давление - приведенное к уровню моря атмосферное давление.
Po - Атмосферное давление - измеренное на уровне метеостанции атмосферное давление.
Tmin - Минимальная температура - минимум температуры воздуха на высоте 2 м над землей.
Tmax - Максимальная температура - максимум температуры воздуха на высоте 2 м над землей.
R - Количество осадков - Количество выпавших осадков за период времени, мм. При наведении курсора мыши на число - период времени, за который выпало указанное количество осадков.
R24 - Количество осадков - Количество выпавших осадков за 24 часа, мм.
S - Снежный покров - Высота снежного покрова, см. При наведении курсора мыши на число - состояние снежного покрова и степень покрытия местности в баллах.